Time,TemperatureF,DewpointF,PressureIn,WindDirection,WindDirectionDegrees,WindSpeedMPH,WindSpeedGustMPH,Humidity,HourlyPrecipIn,Conditions,Clouds,dailyrainin,SoftwareType,DateUTC
2013-02-25 09:21:00,47.0,8.0,-100.00,North,-999,0.0,0.0,20,-99.99,,,-99.99,,2013-02-25 17:21:00,
2013-02-25 09:31:00,41.0,13.0,-100.00,North,-999,0.0,0.0,31,-99.99,,,-99.99,,2013-02-25 17:31:00,
2013-02-25 09:41:00,41.0,10.0,-100.00,North,-999,0.0,0.0,27,-99.99,,,-99.99,,2013-02-25 17:41:00,
2013-02-25 09:52:00,40.0,9.0,-100.00,North,-999,0.0,0.0,27,-99.99,,,-99.99,,2013-02-25 17:52:00,
2013-02-25 10:01:00,40.0,9.0,-100.00,North,-999,0.0,0.0,27,-99.99,,,-99.99,,2013-02-25 18:01:00,
2013-02-25 10:12:00,40.0,9.0,-100.00,North,-999,0.0,0.0,27,-99.99,,,-99.99,,2013-02-25 18:12:00,
2013-02-25 10:21:00,40.0,9.0,-100.00,North,-999,0.0,0.0,27,-99.99,,,-99.99,,2013-02-25 18:21:00,
2013-02-25 10:52:00,50.0,4.0,-100.00,North,-999,0.0,0.0,15,-99.99,,,-99.99,,2013-02-25 18:52:00,
2013-02-25 11:01:00,50.0,4.0,-100.00,North,-999,0.0,0.0,15,-99.99,,,-99.99,,2013-02-25 19:01:00,
2013-02-25 13:32:00,52.0,3.0,-100.00,North,-999,0.0,0.0,13,-99.99,,,-99.99,,2013-02-25 21:32:00,
2013-02-25 13:42:00,52.0,3.0,-100.00,North,-999,0.0,0.0,13,-99.99,,,-99.99,,2013-02-25 21:42:00,
2013-02-25 13:52:00,52.0,3.0,-100.00,North,-999,0.0,0.0,13,-99.99,,,-99.99,,2013-02-25 21:52:00,
2013-02-25 14:01:00,52.0,3.0,-100.00,North,-999,0.0,0.0,13,-99.99,,,-99.99,,2013-02-25 22:01:00,
2013-02-25 14:32:00,49.0,6.0,-100.00,North,-999,0.0,0.0,17,-99.99,,,-99.99,,2013-02-25 22:32:00,
2013-02-25 14:42:00,49.0,9.0,-100.00,North,-999,0.0,0.0,19,-99.99,,,-99.99,,2013-02-25 22:42:00,
2013-02-25 14:52:00,49.0,9.0,-100.00,North,-999,0.0,0.0,19,-99.99,,,-99.99,,2013-02-25 22:52:00,
2013-02-25 15:01:00,48.0,8.0,-100.00,North,-999,0.0,0.0,19,-99.99,,,-99.99,,2013-02-25 23:01:00,
2013-02-25 15:11:00,48.0,8.0,-100.00,North,-999,0.0,0.0,19,-99.99,,,-99.99,,2013-02-25 23:11:00,
2013-02-25 15:22:00,48.0,10.0,-100.00,North,-999,0.0,0.0,21,-99.99,,,-99.99,,2013-02-25 23:22:00,
2013-02-25 15:31:00,48.0,11.0,-100.00,North,-999,0.0,0.0,22,-99.99,,,-99.99,,2013-02-25 23:31:00,
2013-02-25 15:41:00,48.0,12.0,-100.00,North,-999,0.0,0.0,23,-99.99,,,-99.99,,2013-02-25 23:41:00,
2013-02-25 15:52:00,46.0,11.0,-100.00,North,-999,0.0,0.0,24,-99.99,,,-99.99,,2013-02-25 23:52:00,
2013-02-25 16:01:00,45.0,12.0,-100.00,North,-999,0.0,0.0,26,-99.99,,,-99.99,,2013-02-26 00:01:00,
2013-02-25 16:11:00,45.0,12.0,-100.00,North,-999,0.0,0.0,26,-99.99,,,-99.99,,2013-02-26 00:11:00,
2013-02-25 16:21:00,45.0,12.0,-100.00,North,-999,0.0,0.0,26,-99.99,,,-99.99,,2013-02-26 00:21:00,
2013-02-25 16:32:00,45.0,12.0,-100.00,North,-999,0.0,0.0,26,-99.99,,,-99.99,,2013-02-26 00:32:00,
2013-02-25 16:41:00,44.0,15.0,-100.00,North,-999,0.0,0.0,30,-99.99,,,-99.99,,2013-02-26 00:41:00,
2013-02-25 16:52:00,44.0,17.0,-100.00,North,-999,0.0,0.0,33,-99.99,,,-99.99,,2013-02-26 00:52:00,
2013-02-25 17:02:00,44.0,15.0,-100.00,North,-999,0.0,0.0,31,-99.99,,,-99.99,,2013-02-26 01:02:00,
2013-02-25 17:11:00,43.0,14.0,-100.00,North,-999,0.0,0.0,30,-99.99,,,-99.99,,2013-02-26 01:11:00,
2013-02-25 17:21:00,43.0,14.0,-100.00,North,-999,0.0,0.0,30,-99.99,,,-99.99,,2013-02-26 01:21:00,
2013-02-25 17:31:00,43.0,14.0,-100.00,North,-999,0.0,0.0,30,-99.99,,,-99.99,,2013-02-26 01:31:00,
2013-02-25 17:41:00,43.0,14.0,-100.00,North,-999,0.0,0.0,30,-99.99,,,-99.99,,2013-02-26 01:41:00,
2013-02-25 17:51:00,43.0,14.0,-100.00,North,-999,0.0,0.0,30,-99.99,,,-99.99,,2013-02-26 01:51:00,
2013-02-25 18:21:00,41.0,19.0,-100.00,North,-999,0.0,0.0,41,-99.99,,,-99.99,,2013-02-26 02:21:00,
2013-02-25 18:32:00,41.0,21.0,-100.00,North,-999,0.0,0.0,45,-99.99,,,-99.99,,2013-02-26 02:32:00,
2013-02-25 18:41:00,41.0,22.0,-100.00,North,-999,0.0,0.0,47,-99.99,,,-99.99,,2013-02-26 02:41:00,
2013-02-25 18:52:00,40.0,22.0,-100.00,North,-999,0.0,0.0,49,-99.99,,,-99.99,,2013-02-26 02:52:00,
2013-02-25 19:01:00,39.0,22.0,-100.00,North,-999,0.0,0.0,50,-99.99,,,-99.99,,2013-02-26 03:01:00,
2013-02-25 19:11:00,39.0,22.0,-100.00,North,-999,0.0,0.0,50,-99.99,,,-99.99,,2013-02-26 03:11:00,
2013-02-25 19:21:00,39.0,22.0,-100.00,North,-999,0.0,0.0,50,-99.99,,,-99.99,,2013-02-26 03:21:00,
2013-02-25 19:31:00,39.0,22.0,-100.00,North,-999,0.0,0.0,50,-99.99,,,-99.99,,2013-02-26 03:31:00,
2013-02-25 21:52:00,35.0,20.0,-100.00,North,-999,0.0,0.0,53,-99.99,,,-99.99,,2013-02-26 05:52:00,
2013-02-25 22:01:00,35.0,18.0,-100.00,North,-999,0.0,0.0,49,-99.99,,,-99.99,,2013-02-26 06:01:00,
2013-02-25 22:11:00,35.0,17.0,-100.00,North,-999,0.0,0.0,48,-99.99,,,-99.99,,2013-02-26 06:11:00,
2013-02-25 22:21:00,37.0,20.0,-100.00,North,-999,0.0,0.0,50,-99.99,,,-99.99,,2013-02-26 06:21:00,
2013-02-25 22:31:00,37.0,20.0,-100.00,North,-999,0.0,0.0,49,-99.99,,,-99.99,,2013-02-26 06:31:00,
2013-02-25 22:41:00,36.0,18.0,-100.00,North,-999,0.0,0.0,48,-99.99,,,-99.99,,2013-02-26 06:41:00,
2013-02-25 22:51:00,36.0,18.0,-100.00,North,-999,0.0,0.0,48,-99.99,,,-99.99,,2013-02-26 06:51:00,
2013-02-25 23:01:00,36.0,18.0,-100.00,North,-999,0.0,0.0,48,-99.99,,,-99.99,,2013-02-26 07:01:00,
2013-02-25 23:32:00,34.0,15.0,-100.00,North,-999,0.0,0.0,46,-99.99,,,-99.99,,2013-02-26 07:32:00,
2013-02-25 23:42:00,34.0,15.0,-100.00,North,-999,0.0,0.0,46,-99.99,,,-99.99,,2013-02-26 07:42:00,
2013-02-25 23:52:00,34.0,15.0,-100.00,North,-999,0.0,0.0,46,-99.99,,,-99.99,,2013-02-26 07:52:00,